Location: Zielona Gora
(51.9397°N, 15.5050°E)
Time: 10:50:49
(UTC+02:00)

ISS - Visible Passes

Search period start: 26 September 2018 00:00
Search period end: 06 October 2018 00:00
Orbit: 403 x 408 km, 51.6° (Epoch: 26 September)

Date Brightness Start Highest point End Pass type
(mag) Time Alt. Az. Time Alt. Az. Time Alt. Az.
26 Sep -3.4 20:12:06 10° SW 20:15:16 46° SSE 20:16:23 31° ESE visible
26 Sep -1.0 21:48:21 10° W 21:49:04 16° W 21:49:04 16° W visible
27 Sep -2.8 19:20:28 10° SW 19:23:28 32° SSE 19:26:28 10° E visible
27 Sep -3.5 20:56:26 10° WSW 20:59:15 61° WSW 20:59:15 61° WSW visible
28 Sep -3.8 20:04:35 10° WSW 20:07:51 67° SSE 20:09:23 29° E visible
28 Sep -1.1 21:41:01 10° W 21:42:03 19° W 21:42:03 19° W visible
29 Sep -3.4 19:12:46 10° WSW 19:15:58 52° SSE 19:19:12 10° E visible
29 Sep -3.7 20:49:05 10° W 20:52:07 72° W 20:52:07 72° W visible
30 Sep -3.9 19:57:09 10° W 20:00:27 84° S 20:02:08 27° E visible
30 Sep -1.2 21:33:39 10° W 21:34:48 20° W 21:34:48 20° W visible
01 Oct -3.7 19:05:12 10° WSW 19:08:30 73° SSE 19:11:49 10° E visible
01 Oct -3.8 20:41:41 10° W 20:44:47 75° WSW 20:44:47 75° WSW visible
02 Oct -3.9 19:49:42 10° W 19:53:02 87° S 19:54:46 26° E visible
02 Oct -1.3 21:26:14 10° W 21:27:26 20° W 21:27:26 20° W visible
03 Oct -3.8 18:57:44 10° W 19:01:03 86° S 19:04:21 10° E visible
03 Oct -3.6 20:34:14 10° W 20:37:24 62° SSW 20:37:24 62° SSW visible
04 Oct -3.8 19:42:14 10° W 19:45:32 77° SSW 19:47:23 24° ESE visible
04 Oct -1.2 21:18:52 10° W 21:20:03 18° WSW 21:20:03 18° WSW visible
05 Oct -3.1 20:26:46 10° W 20:29:54 41° SSW 20:30:03 41° SSW visible
